Change the Weather History Date:

Saturday, October 12, 2013

  Actual Average (PABR) Record (PABR)
Temperature  
Mean Temperature 32 °F 20 °F  
Max Temperature 33 °F 24 °F 37 °F (2009)
Min Temperature 28 °F 15 °F -13 °F (1988)
Degree Days  
Heating Degree Days 34 45  
Month to date heating degree days 505  
Since 1 July heating degree days 3045  
Cooling Degree Days 0    
Month to date cooling degree days  
Year to date cooling degree days  
Moisture  
Dew Point 28 °F    
Average Humidity 86    
Maximum Humidity 96    
Minimum Humidity 79    
Precipitation  
Precipitation 0.00 in 0.02 in 0.45 in (1972)
Month to date precipitation 0.19  
Year to date precipitation 3.96  
Snow  
Snow 0.00 in 0.30 in 5.10 in (1972)
Month to date snowfall 3.3  
Since 1 July snowfall 8.8  
Since 1 September snowfall 7.7  
Snow Depth -    
Sea Level Pressure  
Sea Level Pressure 29.70 in    
Wind  
Wind Speed 8 mph (WNW)    
Max Wind Speed 14 mph    
Max Gust Speed -    
Visibility 6 miles    
Events Snow    
T = Trace of Precipitation, MM = Missing Value Source: NWS Daily Summary

Daily Weather History Graph

Daily Weather History Graph

Search for Another Location

Airport or City:

Trip Planner

Search our weather history database for the weather conditions in past years. The results will help you decide how hot, cold, wet, or windy it might be!

Date:

Astronomy

Oct. 12, 2013 Rise Set
Actual Time 9:45 AM AKDT 7:05 PM AKDT
Civil Twilight 8:40 AM AKDT 8:09 PM AKDT
Nautical Twilight 7:27 AM AKDT 9:22 PM AKDT
Astronomical Twilight 6:09 AM AKDT 10:39 PM AKDT
Moon 6:38 PM AKDT (10/12) No Moon Set
Length of Visible Light 11h 28m
Length of Day
9h 20m
First Quarter, 60% of the Moon is Illuminated
Oct 12
First Quarter
Oct 18
Full
Oct 26
Last Quarter
Nov 3
New
Nov 9
First Quarter

Hourly Weather History & Observations

Time (AKDT) Temp. Windchill Dew Point Humidity Pressure Visibility Wind Dir Wind Speed Gust Speed Precip Events Conditions
12:53 AM 32.0 °F 26.4 °F 30.9 °F 96% 29.59 in 9.0 mi SSE 5.8 mph - 0.00 in   Overcast
1:02 AM 32.0 °F 27.5 °F 30.2 °F 93% 29.59 in 10.0 mi SSE 4.6 mph - N/A   Overcast
1:13 AM 32.0 °F 27.5 °F 30.2 °F 93% 29.59 in 10.0 mi SSW 4.6 mph - N/A   Overcast
1:37 AM 32.0 °F 26.4 °F 30.2 °F 93% 29.59 in 10.0 mi SSW 5.8 mph - N/A   Overcast
1:53 AM 32.0 °F 26.4 °F 30.0 °F 92% 29.60 in 4.0 mi SSW 5.8 mph - N/A   Overcast
2:02 AM 32.0 °F 26.4 °F 30.2 °F 93% 29.60 in 4.0 mi SW 5.8 mph - N/A   Overcast
2:22 AM 32.0 °F 26.4 °F 30.2 °F 93% 29.60 in 2.5 mi SW 5.8 mph - N/A   Overcast
2:42 AM 30.2 °F 25.4 °F 28.4 °F 93% 29.60 in 1.2 mi South 4.6 mph - N/A   Overcast
2:53 AM 30.0 °F 24.1 °F 28.0 °F 92% 29.60 in 1.2 mi SSW 5.8 mph - N/A   Overcast
3:53 AM 33.1 °F 27.7 °F 30.9 °F 92% 29.61 in 10.0 mi SW 5.8 mph - N/A   Overcast
4:53 AM 33.1 °F 26.1 °F 30.0 °F 89% 29.61 in 10.0 mi SW 8.1 mph - N/A   Overcast
5:53 AM 33.1 °F 26.9 °F 30.0 °F 89% 29.62 in 10.0 mi SW 6.9 mph - N/A   Overcast
6:18 AM 33.8 °F 27.7 °F 30.2 °F 87% 29.62 in 10.0 mi WSW 6.9 mph - N/A   Overcast
6:53 AM 33.1 °F 24.4 °F 28.9 °F 85% 29.62 in 10.0 mi West 11.5 mph - N/A   Overcast
7:53 AM 32.0 °F 24.8 °F 28.0 °F 85% 29.65 in 10.0 mi WSW 8.1 mph - N/A   Overcast
8:35 AM 32.0 °F 24.2 °F 28.4 °F 87% 29.65 in 5.0 mi WNW 9.2 mph - 0.00 in Snow Light Snow
8:53 AM 30.9 °F 24.3 °F 28.0 °F 89% 29.66 in 3.0 mi West 6.9 mph - 0.00 in Snow Light Snow
9:01 AM 30.2 °F 21.3 °F 26.6 °F 86% 29.66 in 9.0 mi West 10.4 mph - 0.00 in   Mostly Cloudy
9:12 AM 32.0 °F 25.6 °F 28.4 °F 87% 29.66 in 10.0 mi West 6.9 mph - 0.00 in Snow Light Snow
9:32 AM 32.0 °F 23.6 °F 28.4 °F 87% 29.66 in 10.0 mi West 10.4 mph - 0.00 in   Overcast
9:53 AM 32.0 °F 25.6 °F 28.9 °F 88% 29.67 in 9.0 mi WNW 6.9 mph - 0.00 in   Overcast
10:12 AM 32.0 °F 24.8 °F 28.4 °F 87% 29.67 in 10.0 mi WNW 8.1 mph - N/A   Overcast
10:37 AM 32.0 °F 24.8 °F 28.4 °F 87% 29.67 in 10.0 mi WNW 8.1 mph - N/A   Overcast
10:53 AM 32.0 °F 23.6 °F 28.9 °F 88% 29.68 in 7.0 mi West 10.4 mph - N/A   Overcast
11:53 AM 32.0 °F 23.6 °F 28.0 °F 85% 29.70 in 10.0 mi WNW 10.4 mph - N/A   Overcast
12:53 PM 33.1 °F 24.4 °F 28.9 °F 85% 29.72 in 8.0 mi West 11.5 mph - N/A   Overcast
1:15 PM 32.0 °F 22.1 °F 28.4 °F 87% 29.72 in 2.0 mi West 13.8 mph - 0.00 in Snow Light Snow
1:22 PM 32.0 °F 23.0 °F 28.4 °F 87% 29.72 in 2.5 mi West 11.5 mph - 0.00 in Snow Light Snow
1:30 PM 32.0 °F 23.0 °F 26.6 °F 80% 29.73 in 7.0 mi West 11.5 mph - 0.00 in Snow Light Snow
1:53 PM 32.0 °F 24.8 °F 26.1 °F 79% 29.74 in 10.0 mi WNW 8.1 mph - 0.00 in   Mostly Cloudy
2:53 PM 32.0 °F 24.2 °F 27.0 °F 82% 29.75 in 4.0 mi WNW 9.2 mph - 0.00 in Snow Light Snow
3:31 PM 32.0 °F 23.6 °F 28.4 °F 87% 29.75 in 2.5 mi NW 10.4 mph - 0.00 in Snow Light Snow
3:44 PM 30.2 °F 21.3 °F 26.6 °F 86% 29.75 in 9.0 mi NW 10.4 mph - 0.00 in   Overcast
3:53 PM 30.9 °F 22.8 °F 27.0 °F 85% 29.76 in 4.0 mi NW 9.2 mph - 0.00 in Snow Light Snow
4:53 PM 32.0 °F 23.6 °F 26.1 °F 79% 29.76 in 4.0 mi NW 10.4 mph - 0.00 in Snow Light Snow
5:53 PM 30.9 °F 23.5 °F 26.1 °F 82% 29.78 in 2.5 mi NW 8.1 mph - 0.00 in Snow Light Snow
6:07 PM 30.2 °F 21.9 °F 26.6 °F 86% 29.78 in 8.0 mi NNW 9.2 mph - 0.00 in   Overcast
6:49 PM 30.2 °F 21.9 °F 26.6 °F 86% 29.78 in 2.0 mi NNW 9.2 mph - 0.00 in Snow Light Snow
6:53 PM 30.9 °F 22.2 °F 27.0 °F 85% 29.78 in 2.5 mi NNW 10.4 mph - 0.00 in Snow Light Snow
7:22 PM 30.2 °F 21.3 °F 24.8 °F 80% 29.78 in 7.0 mi NW 10.4 mph - 0.00 in Snow Light Snow
7:39 PM 30.2 °F 22.6 °F 26.6 °F 86% 29.79 in 7.0 mi NNW 8.1 mph - 0.00 in   Overcast
7:46 PM 30.2 °F 21.3 °F 26.6 °F 86% 29.78 in 2.5 mi NNW 10.4 mph - 0.00 in Snow Light Snow
7:51 PM 30.2 °F 21.3 °F 26.6 °F 86% 29.78 in 2.5 mi NNW 10.4 mph - 0.00 in Snow Light Snow
7:53 PM 30.0 °F 20.5 °F 26.1 °F 85% 29.78 in 3.0 mi NNW 11.5 mph - 0.00 in Snow Light Snow
8:53 PM 30.0 °F 22.4 °F 25.0 °F 82% 29.80 in 6.0 mi North 8.1 mph - 0.00 in Snow Light Snow
9:37 PM 30.2 °F 22.6 °F 24.8 °F 80% 29.81 in 7.0 mi North 8.1 mph - 0.00 in Snow Light Snow
9:53 PM 30.0 °F 21.7 °F 24.1 °F 79% 29.81 in 10.0 mi North 9.2 mph - 0.00 in   Overcast
10:17 PM 30.2 °F 22.6 °F 24.8 °F 80% 29.80 in 7.0 mi North 8.1 mph - 0.00 in Snow Light Snow
10:30 PM 30.2 °F 20.8 °F 26.6 °F 86% 29.80 in 3.0 mi NNW 11.5 mph - 0.00 in Snow Light Snow
10:53 PM 30.0 °F 21.7 °F 25.0 °F 82% 29.81 in 10.0 mi North 9.2 mph - 0.00 in   Overcast
11:53 PM 28.9 °F 20.4 °F 25.0 °F 85% 29.82 in 3.0 mi North 9.2 mph - 0.00 in Snow Light Snow